Tracking 29892 objects as of 21-Nov-2024
HD Live streaming from Space Station
objects crossing your sky now

STARLINK-1316

Track STARLINK-1316 now!
10-day predictions
STARLINK-1316 is classified as:


NORAD ID: 45415
Int'l Code: 2020-019BH
Perigee: 553.7 km
Apogee: 555.1 km
Inclination: 53.1 °
Period: 95.6 minutes
Semi major axis: 6925 km
RCS: Unknown
Launch date: March 18, 2020
Source: United States (US)
Launch site: AIR FORCE EASTERN TEST RANGE (AFETR)
Your satellite tracking list
Your tracking list is empty




NASA's NSSDC Master Catalog

Two Line Element Set (TLE):
1 45415U 20019BH  24324.84263937  .00000454  00000-0  49359-4 0  9995
2 45415  53.0556 108.2918 0001032  83.6550 276.4557 15.06389353258315
Source of the keplerian elements: AFSPC